This demonstration page uses our WeatherBlox Daily Observations layout. Learn more.

Left ArrowRight Arrow

34.74481, -87.66753

Hourly Observations for March 14, 2021

Temp ( °F °C ) Dew Point ( °F °C ) Humidity (%) Winds ( mph kmh ) Pressure ( in mb ) Visibility ( mi km ) Precip ( " mm )
12:53 am 00:53 Cloudy 61 16.1 54 12.2 78 78 ENE 5 7 30.13 1020 10 16 0.00 0.00
1:53 am 01:53 Cloudy 60 15.6 54 12.2 80 80 E 3 6 30.11 1020 9 14 0.00 0.00
3:53 am 03:53 Cloudy 60 15.6 54 12.2 80 80 Calm 30.11 1020 9 14 0.00 0.00
4:53 am 04:53 Clear 58 14.4 52 11.1 81 81 Calm 30.10 1019 8 13 0.00 0.00
5:33 am 05:33 Clear with Mist and Fog 56 13.3 52 11.1 87 87 Calm 30.12 1020 2 3 0.00 0.00
5:41 am 05:41 Hazy 56 13.3 51 10.6 84 84 Calm 30.12 1020 1 1 0.00 0.00
5:53 am 05:53 Hazy 56 13.3 51 10.6 84 84 S 3 6 30.10 1019 2 3 0.00 0.00
5:59 am 05:59 Hazy 55 12.8 50 10 83 83 S 5 7 30.12 1020 1 1 0.00 0.00
6:03 am 06:03 Mostly Cloudy with Fog 53 11.7 49 9.4 86 86 S 3 6 30.12 1020 0 0 0.00 0.00
6:22 am 06:22 Mostly Cloudy with Fog 54 12.2 50 10 87 87 Calm 30.12 1020 0 0 0.00 0.00
6:53 am 06:53 Mostly Cloudy with Haze 55 12.8 50 10 83 83 Calm 30.12 1020 1 1 0.00 0.00
7:04 am 07:04 Mostly Cloudy with Fog 54 12.2 50 10 87 87 Calm 30.13 1020 0 0 0.00 0.00
7:53 am 07:53 Mostly Cloudy with Fog 55 12.8 51 10.6 87 87 Calm 30.13 1020 0 0 0.00 0.00
8:09 am 08:09 Mostly Cloudy with Mist and Fog 57 13.9 53 11.7 87 87 Calm 30.14 1021 1 2 0.00 0.00
8:13 am 08:13 Sunny with Mist and Fog 57 13.9 54 12.2 90 90 Calm 30.15 1021 2 3 0.00 0.00
8:22 am 08:22 Sunny with Mist and Fog 58 14.4 54 12.2 87 87 ESE 3 6 30.15 1021 4 6 0.00 0.00
8:53 am 08:53 Sunny with Mist and Fog 59 15 55 12.8 87 87 ESE 5 7 30.14 1021 6 10 0.00 0.00
9:53 am 09:53 Sunny 65 18.3 56 13.3 73 73 SE 5 7 30.14 1021 9 14 0.00 0.00
10:53 am 10:53 Sunny 70 21.1 57 13.9 64 64 ESE 3 6 30.13 1020 10 16 0.00 0.00
11:53 am 11:53 Sunny 75 23.9 58 14.4 55 55 ESE 3 6 30.12 1020 10 16 0.00 0.00
12:53 pm 12:53 Mostly Sunny 78 25.6 55 12.8 45 45 SSE 9 15 30.09 1019 10 16 0.00 0.00
1:53 pm 13:53 Mostly Sunny 81 27.2 53 11.7 38 38 SSE 10 17 30.05 1018 10 16 0.00 0.00
2:53 pm 14:53 Sunny 80 26.7 50 10 35 35 S 6 9 30.02 1017 10 16 0.00 0.00
3:53 pm 15:53 Sunny 80 26.7 49 9.4 34 34 S 10 17 30.00 1016 10 16 0.00 0.00
4:53 pm 16:53 Sunny 80 26.7 49 9.4 34 34 S 8 13 30.00 1016 10 16 0.00 0.00
5:53 pm 17:53 Sunny 77 25 49 9.4 37 37 SSE 8 13 29.97 1015 10 16 0.00 0.00
6:53 pm 18:53 Sunny 75 23.9 47 8.3 37 37 S 6 9 29.99 1016 10 16 0.00 0.00
7:53 pm 19:53 Clear 71 21.7 48 8.9 44 44 SSE 7 11 29.98 1015 10 16 0.00 0.00
8:53 pm 20:53 Clear 70 21.1 48 8.9 46 46 S 3 6 30.01 1016 10 16 0.00 0.00
9:53 pm 21:53 Clear 66 18.9 50 10 56 56 ESE 5 7 30.00 1016 10 16 0.00 0.00
10:53 pm 22:53 Clear 66 18.9 51 10.6 59 59 SE 3 6 30.00 1016 10 16 0.00 0.00
11:53 pm 23:53 Mostly Clear 69 20.6 51 10.6 53 53 SE 5 7 29.98 1015 10 16 0.00 0.00

Powered by AerisWeather